"SCET";"TARGET";"ELECTRON_DENSITY";"ERROR_FLAG";"ELECTRON_DENSITY_ERROR";"FREQ_FCE";"MEASURED_VALUE";"MEASURED_ITEM";"FREQ_PLASMA";"FREQ_UPPER_HYBRID";"FREQ_R_EQUALS_ZERO";"FREQ_L_EQUALS_ZERO";"ORBIT_NUMBER";"SATURN_RADIUS";"SATURN_IAU_LONGITUDE";"SATURN_SLS4_S_LONGITUDE";"SATURN_SLS4_N_LONGITUDE";"SATURN_SLS5_S_LONGITUDE";"SATURN_SLS5_N_LONGITUDE";"SATURN_LOCAL_TIME";"SATURN_KRONOGRAPHIC_LATITUDE";"SATURN_MAGNETIC_LATITUDE";"SATURN_L";"SATURN_L_OFFSET";"SATURN_SOLAR_EQUATORIAL_X";"SATURN_SOLAR_EQUATORIAL_Y";"SATURN_SOLAR_EQUATORIAL_Z";"SATURN_ALTITUDE";"ENCELADUS_ENCOUNTER_NUMBER";"ENCELADUS_RADIUS";"ENCELADUS_COROTATIONAL_X";"ENCELADUS_COROTATIONAL_Y";"ENCELADUS_COROTATIONAL_Z";"ENCELADUS_TRUE_ANOMALY";"ENCELADUS_PERIAPSIS_TIME";"JUPITER_RADIUS";"JUPITER_SYSTEMIII_LONGITUDE";"JUPITER_MAGNETIC_LATITUDE";"JUPITER_MAGNETIC_LOCAL_TIME";"JUPITER_L";"IO_PHASE";"EARTH_RADIUS";"EARTH_MAGNETIC_LATITUDE";"EARTH_LOCAL_TIME";"EARTH_L"
"[UTC]";"[0=Saturn, 1=Enceladus, 2=Jupiter, 3=Earth]";"[cm-3]";"[0=automated, 1=manual]";"[normalized density error]";"[Hz]";"[Hz]";"[0=upper hybrid frequency, 1=plasma frequency cutoff]";"[Hz]";"[Hz]";"[Hz]";"[Hz}";"[0, A, B, C, 3, 4, ... , 292, 293]";"[Rs where 1Rs=60268km]";"[degrees]";"[degrees]";"[degrees]";"[degrees]";"[degrees]";"[hours]";"[degrees]";"[degrees where offset=2293km north]";"[Rs where 1Rs=60268km]";"[Rs where 1Rs=60268km and offset=2293km north]";"[Rs where 1Rs=60268km]";"[Rs where 1Rs=60268km]";"[Rs where 1Rs=60268km]";"[km where ellipsoid a,b=60268km and c=54364km]";"[E0, E1, E2, ... , E21, E22]";"[Renc where 1Renc=252.1km]";"[Renc where 1Renc=252.1km]";"[Renc where 1Renc=252.1km]";"[Renc where 1Renc=252.1km]";"[degrees]";"[UTC]";"[Rj where 1Rj=71492km]";"[degrees]";"[degrees using JRM09 model]";"[hours using JRM09 model]";"[Rj where 1Rj=71492km]";"[degrees]";"[Re where 1Re=6378.1366km]";"[degrees]";"[hours]";"[Re where 1Re=6378.1366km]"
2016-11-19T07:10:12.499Z;0;1.5480e+01;0;     0.231; 11032.280;  37017.090; 0;  35334.879;  37017.090;  41278.992;  30246.711;249;   3.755;  33.359;;; 161.415; 191.114;  13.383;   7.137;   6.561;   3.814;   3.746;   3.484;   1.320;   0.466;;;;;;;;;;;;;;;;;;
2016-11-19T07:10:28.499Z;0;1.5990e+01;0;     0.186; 11032.280;  37560.863; 0;  35904.141;  37560.863;  41841.547;  30809.266;249;   3.754;  33.477;;; 161.532; 191.229;  13.385;   7.078;   6.501;   3.812;   3.746;   3.483;   1.322;   0.462;;;;;;;;;;;;;;;;;;
2016-11-19T07:10:36.499Z;0;1.6760e+01;0;     0.160; 11032.280;  38384.004; 0;  36764.391;  38384.004;  42692.051;  31659.771;249;   3.754;  33.535;;; 161.590; 191.287;  13.386;   7.049;   6.472;   3.811;   3.745;   3.483;   1.323;   0.460;;;;;;;;;;;;;;;;;;
2016-11-19T07:10:44.499Z;0;1.5210e+01;0;     0.190; 11032.280;  36720.613; 0;  35024.168;  36720.613;  40972.027;  29939.748;249;   3.753;  33.594;;; 161.648; 191.344;  13.387;   7.019;   6.442;   3.810;   3.745;   3.482;   1.324;   0.458;;;;;;;;;;;;;;;;;;
2016-11-19T07:10:52.499Z;0;1.6320e+01;0;     0.169; 11032.280;  37913.551; 0;  36272.938;  37913.551;  42206.109;  31173.830;249;   3.753;  33.652;;; 161.707; 191.402;  13.389;   6.990;   6.412;   3.809;   3.744;   3.481;   1.325;   0.456;;;;;;;;;;;;;;;;;;
2016-11-19T07:11:00.499Z;0;1.6100e+01;0;     0.191; 11040.568;  37680.301; 0;  36026.531;  37680.301;  41967.293;  30926.725;249;   3.752;  33.711;;; 161.765; 191.459;  13.390;   6.960;   6.383;   3.808;   3.744;   3.481;   1.326;   0.455;;;;;;;;;;;;;;;;;;
2016-11-19T07:11:08.499Z;0;1.6340e+01;0;     0.180; 11040.568;  37939.746; 0;  36297.797;  37939.746;  42235.453;  31194.887;249;   3.752;  33.770;;; 161.823; 191.517;  13.391;   6.930;   6.353;   3.807;   3.744;   3.480;   1.326;   0.453;;;;;;;;;;;;;;;;;;
2016-11-19T07:11:16.499Z;0;1.6360e+01;0;     0.183; 11040.568;  37960.152; 0;  36319.129;  37960.152;  42256.539;  31215.973;249;   3.752;  33.828;;; 161.881; 191.574;  13.392;   6.901;   6.323;   3.807;   3.743;   3.480;   1.327;   0.451;;;;;;;;;;;;;;;;;;
2016-11-19T07:11:24.499Z;0;1.6190e+01;0;     0.194; 11040.568;  37784.031; 0;  36135.008;  37784.031;  42074.523;  31033.955;249;   3.751;  33.887;;; 161.939; 191.631;  13.393;   6.871;   6.294;   3.806;   3.743;   3.479;   1.328;   0.449;;;;;;;;;;;;;;;;;;
2016-11-19T07:11:32.499Z;0;1.5880e+01;0;     0.213; 11040.568;  37452.926; 0;  35788.652;  37452.926;  41732.176;  30691.607;249;   3.751;  33.946;;; 161.998; 191.689;  13.394;   6.841;   6.264;   3.805;   3.743;   3.479;   1.329;   0.447;;;;;;;;;;;;;;;;;;
2016-11-19T07:11:40.499Z;0;1.6500e+01;0;     0.177; 11040.568;  38111.125; 0;  36476.895;  38111.125;  42412.523;  31371.955;249;   3.751;  34.004;;; 162.056; 191.746;  13.395;   6.812;   6.234;   3.804;   3.742;   3.478;   1.330;   0.445;;;;;;;;;;;;;;;;;;
2016-11-19T07:11:48.499Z;0;1.6810e+01;0;     0.181; 11040.568;  38436.953; 0;  36817.188;  38436.953;  42749.020;  31708.451;249;   3.750;  34.063;;; 162.114; 191.803;  13.396;   6.782;   6.204;   3.803;   3.742;   3.478;   1.331;   0.443;;;;;;;;;;;;;;;;;;
2016-11-19T07:11:56.499Z;0;1.6800e+01;0;     0.147; 11040.568;  38425.852; 0;  36805.598;  38425.852;  42737.559;  31696.990;249;   3.750;  34.122;;; 162.172; 191.861;  13.397;   6.753;   6.175;   3.802;   3.742;   3.477;   1.332;   0.441;;;;;;;;;;;;;;;;;;
2016-11-19T07:12:04.498Z;0;1.6120e+01;0;     0.181; 11049.192;  37712.090; 0;  36057.137;  37712.090;  42002.512;  30953.318;249;   3.749;  34.180;;; 162.230; 191.918;  13.398;   6.723;   6.145;   3.801;   3.741;   3.477;   1.333;   0.439;;;;;;;;;;;;;;;;;;
2016-11-19T07:12:12.498Z;0;1.7120e+01;0;     0.181; 11049.192;  38768.609; 0;  37160.738;  38768.609;  43093.754;  32044.561;249;   3.749;  34.239;;; 162.289; 191.975;  13.400;   6.693;   6.115;   3.801;   3.741;   3.476;   1.334;   0.437;;;;;;;;;;;;;;;;;;
2016-11-19T07:12:20.498Z;0;1.7000e+01;0;     0.159; 11049.192;  38639.551; 0;  37026.074;  38639.551;  42960.559;  31911.367;249;   3.749;  34.297;;; 162.347; 192.032;  13.401;   6.664;   6.085;   3.800;   3.741;   3.476;   1.335;   0.435;;;;;;;;;;;;;;;;;;
2016-11-19T07:12:28.498Z;0;1.6990e+01;0;     0.155; 11049.192;  38623.578; 0;  37009.406;  38623.578;  42944.074;  31894.881;249;   3.748;  34.356;;; 162.405; 192.090;  13.402;   6.634;   6.056;   3.799;   3.740;   3.475;   1.336;   0.433;;;;;;;;;;;;;;;;;;
2016-11-19T07:12:36.498Z;0;1.7030e+01;0;     0.171; 11049.192;  38667.355; 0;  37055.090;  38667.355;  42989.258;  31940.066;249;   3.748;  34.415;;; 162.463; 192.147;  13.403;   6.604;   6.026;   3.798;   3.740;   3.475;   1.337;   0.431;;;;;;;;;;;;;;;;;;
2016-11-19T07:12:44.498Z;0;1.6300e+01;0;     0.188; 11049.192;  37901.301; 0;  36254.984;  37901.301;  42198.090;  31148.896;249;   3.748;  34.473;;; 162.521; 192.204;  13.404;   6.574;   5.996;   3.797;   3.740;   3.474;   1.338;   0.429;;;;;;;;;;;;;;;;;;
2016-11-19T07:12:52.498Z;0;1.7190e+01;0;     0.128; 11049.192;  38834.941; 0;  37229.934;  38834.941;  43162.199;  32113.008;249;   3.747;  34.532;;; 162.580; 192.261;  13.405;   6.545;   5.966;   3.796;   3.739;   3.474;   1.339;   0.427;;;;;;;;;;;;;;;;;;
2016-11-19T07:13:00.498Z;0;1.7000e+01;0;     0.162; 11058.096;  38637.953; 0;  37021.750;  38637.953;  42961.391;  31903.295;249;   3.747;  34.591;;; 162.638; 192.318;  13.406;   6.515;   5.937;   3.796;   3.739;   3.473;   1.340;   0.425;;;;;;;;;;;;;;;;;;
2016-11-19T07:13:08.498Z;0;1.7460e+01;0;     0.147; 11058.096;  39116.559; 0;  37520.977;  39116.559;  43455.215;  32397.117;249;   3.746;  34.649;;; 162.696; 192.375;  13.407;   6.485;   5.907;   3.795;   3.738;   3.473;   1.341;   0.423;;;;;;;;;;;;;;;;;;
2016-11-19T07:13:16.498Z;0;1.7540e+01;0;     0.136; 11058.096;  39198.676; 0;  37606.578;  39198.676;  43539.902;  32481.807;249;   3.746;  34.708;;; 162.754; 192.433;  13.408;   6.456;   5.877;   3.794;   3.738;   3.472;   1.342;   0.421;;;;;;;;;;;;;;;;;;
2016-11-19T07:13:24.498Z;0;1.7540e+01;0;     0.156; 11058.096;  39195.836; 0;  37603.617;  39195.836;  43536.973;  32478.877;249;   3.746;  34.766;;; 162.812; 192.490;  13.409;   6.426;   5.847;   3.793;   3.738;   3.472;   1.343;   0.419;;;;;;;;;;;;;;;;;;
2016-11-19T07:13:32.498Z;0;1.7390e+01;0;     0.147; 11058.096;  39045.922; 0;  37447.328;  39045.922;  43382.355;  32324.260;249;   3.745;  34.825;;; 162.871; 192.547;  13.411;   6.396;   5.817;   3.792;   3.737;   3.471;   1.343;   0.417;;;;;;;;;;;;;;;;;;
2016-11-19T07:13:40.498Z;0;1.8610e+01;0;     0.160; 11058.096;  40283.422; 0;  38735.934;  40283.422;  44657.594;  33599.496;249;   3.745;  34.884;;; 162.929; 192.604;  13.412;   6.367;   5.787;   3.792;   3.737;   3.471;   1.344;   0.415;;;;;;;;;;;;;;;;;;
2016-11-19T07:13:48.498Z;0;1.8450e+01;0;     0.158; 11058.096;  40122.723; 0;  38568.789;  40122.723;  44492.129;  33434.035;249;   3.745;  34.942;;; 162.987; 192.661;  13.413;   6.337;   5.758;   3.791;   3.737;   3.470;   1.345;   0.413;;;;;;;;;;;;;;;;;;
2016-11-19T07:13:56.498Z;0;1.8280e+01;0;     0.185; 11058.096;  39953.371; 0;  38392.582;  39953.371;  44317.715;  33259.621;249;   3.744;  35.001;;; 163.045; 192.718;  13.414;   6.307;   5.728;   3.790;   3.736;   3.470;   1.346;   0.411;;;;;;;;;;;;;;;;;;
2016-11-19T07:14:04.498Z;0;1.7880e+01;0;     0.157; 11067.195;  39550.707; 0;  37970.719;  39550.707;  43905.414;  32838.219;249;   3.744;  35.059;;; 163.103; 192.775;  13.415;   6.277;   5.698;   3.789;   3.736;   3.469;   1.347;   0.409;;;;;;;;;;;;;;;;;;
2016-11-19T07:14:12.498Z;0;1.8770e+01;0;     0.168; 11067.195;  40451.367; 0;  38907.973;  40451.367;  44833.102;  33765.906;249;   3.743;  35.118;;; 163.162; 192.832;  13.416;   6.248;   5.668;   3.788;   3.736;   3.468;   1.348;   0.407;;;;;;;;;;;;;;;;;;
2016-11-19T07:14:20.498Z;0;1.8790e+01;0;     0.152; 11067.195;  40468.938; 0;  38926.238;  40468.938;  44851.188;  33783.992;249;   3.743;  35.177;;; 163.220; 192.889;  13.417;   6.218;   5.638;   3.788;   3.735;   3.468;   1.349;   0.405;;;;;;;;;;;;;;;;;;
2016-11-19T07:14:28.498Z;0;1.8730e+01;0;     0.162; 11067.195;  40412.008; 0;  38867.051;  40412.008;  44792.586;  33725.391;249;   3.743;  35.235;;; 163.278; 192.946;  13.418;   6.188;   5.608;   3.787;   3.735;   3.467;   1.350;   0.403;;;;;;;;;;;;;;;;;;
2016-11-19T07:14:36.497Z;0;1.8660e+01;0;     0.171; 11067.195;  40337.223; 0;  38789.285;  40337.223;  44715.602;  33648.406;249;   3.742;  35.294;;; 163.336; 193.002;  13.419;   6.158;   5.579;   3.786;   3.735;   3.467;   1.351;   0.401;;;;;;;;;;;;;;;;;;
2016-11-19T07:14:44.497Z;0;1.8900e+01;0;     0.148; 11067.195;  40583.039; 0;  39044.848;  40583.039;  44968.621;  33901.426;249;   3.742;  35.352;;; 163.394; 193.059;  13.420;   6.128;   5.549;   3.785;   3.734;   3.466;   1.352;   0.399;;;;;;;;;;;;;;;;;;
2016-11-19T07:14:52.497Z;0;1.9240e+01;0;     0.153; 11067.195;  40912.020; 0;  39386.680;  40912.020;  45307.098;  34239.902;249;   3.742;  35.411;;; 163.453; 193.116;  13.421;   6.099;   5.519;   3.784;   3.734;   3.466;   1.353;   0.397;;;;;;;;;;;;;;;;;;
2016-11-19T07:15:00.497Z;0;1.9180e+01;0;     0.165; 11076.520;  40855.312; 0;  39325.148;  40855.312;  45251.477;  34174.957;249;   3.741;  35.470;;; 163.511; 193.173;  13.423;   6.069;   5.489;   3.784;   3.734;   3.465;   1.354;   0.395;;;;;;;;;;;;;;;;;;
2016-11-19T07:15:08.497Z;0;1.9290e+01;0;     0.171; 11076.520;  40968.117; 0;  39442.328;  40968.117;  45367.516;  34290.996;249;   3.741;  35.528;;; 163.569; 193.230;  13.424;   6.039;   5.459;   3.783;   3.733;   3.465;   1.355;   0.393;;;;;;;;;;;;;;;;;;
2016-11-19T07:15:16.497Z;0;1.9450e+01;0;     0.189; 11076.520;  41125.543; 0;  39605.820;  41125.543;  45529.426;  34452.906;249;   3.741;  35.587;;; 163.627; 193.287;  13.425;   6.009;   5.429;   3.782;   3.733;   3.464;   1.356;   0.391;;;;;;;;;;;;;;;;;;
2016-11-19T07:15:24.497Z;0;1.9980e+01;0;     0.127; 11076.520;  41636.078; 0;  40135.691;  41636.078;  46054.258;  34977.738;249;   3.740;  35.645;;; 163.685; 193.344;  13.426;   5.979;   5.399;   3.781;   3.733;   3.464;   1.357;   0.389;;;;;;;;;;;;;;;;;;
2016-11-19T07:15:32.497Z;0;2.0940e+01;0;     0.169; 11076.520;  42556.785; 0;  41090.031;  42556.785;  46999.844;  35923.324;249;   3.740;  35.704;;; 163.743; 193.400;  13.427;   5.950;   5.369;   3.780;   3.732;   3.463;   1.358;   0.387;;;;;;;;;;;;;;;;;;
2016-11-19T07:15:40.497Z;0;2.0800e+01;0;     0.161; 11076.520;  42422.992; 0;  40951.445;  42422.992;  46862.504;  35785.984;249;   3.739;  35.763;;; 163.802; 193.457;  13.428;   5.920;   5.339;   3.780;   3.732;   3.463;   1.359;   0.385;;;;;;;;;;;;;;;;;;
2016-11-19T07:15:48.497Z;0;2.0790e+01;0;     0.197; 11076.520;  42419.609; 0;  40947.941;  42419.609;  46859.031;  35782.512;249;   3.739;  35.821;;; 163.860; 193.514;  13.429;   5.890;   5.310;   3.779;   3.732;   3.462;   1.359;   0.384;;;;;;;;;;;;;;;;;;
2016-11-19T07:15:56.497Z;0;1.9920e+01;0;     0.186; 11076.520;  41580.801; 0;  40078.344;  41580.801;  45997.449;  34920.930;249;   3.739;  35.880;;; 163.918; 193.571;  13.430;   5.860;   5.280;   3.778;   3.731;   3.462;   1.360;   0.382;;;;;;;;;;;;;;;;;;
2016-11-19T07:16:04.497Z;0;2.1250e+01;0;     0.206; 11086.151;  42856.461; 0;  41397.746;  42856.461;  47310.277;  36224.125;249;   3.738;  35.938;;; 163.976; 193.627;  13.431;   5.830;   5.250;   3.777;   3.731;   3.461;   1.361;   0.380;;;;;;;;;;;;;;;;;;
2016-11-19T07:16:12.497Z;0;2.1180e+01;0;     0.181; 11086.151;  42789.562; 0;  41328.488;  42789.562;  47241.633;  36155.480;249;   3.738;  35.997;;; 164.034; 193.684;  13.432;   5.800;   5.220;   3.777;   3.731;   3.460;   1.362;   0.378;;;;;;;;;;;;;;;;;;
2016-11-19T07:16:44.497Z;0;2.2620e+01;0;     0.227; 11086.151;  44128.219; 0;  42712.961;  44128.219;  48614.211;  37528.059;249;   3.737;  36.231;;; 164.267; 193.910;  13.437;   5.681;   5.100;   3.774;   3.729;   3.458;   1.366;   0.370;;;;;;;;;;;;;;;;;;
2016-11-19T07:16:52.497Z;0;2.2470e+01;0;     0.195; 11086.151;  43983.527; 0;  42563.457;  43983.527;  48465.957;  37379.805;249;   3.736;  36.290;;; 164.325; 193.967;  13.438;   5.651;   5.070;   3.773;   3.729;   3.458;   1.367;   0.368;;;;;;;;;;;;;;;;;;
2016-11-19T07:17:08.497Z;0;2.3370e+01;0;     0.180; 11096.261;  44803.594; 0;  43407.777;  44803.594;  49309.035;  38212.773;249;   3.735;  36.407;;; 164.441; 194.080;  13.440;   5.591;   5.010;   3.771;   3.728;   3.457;   1.369;   0.364;;;;;;;;;;;;;;;;;;
2016-11-19T07:17:24.496Z;0;2.6670e+01;0;     0.184; 11096.261;  47687.215; 0;  46378.266;  47687.215;  52257.070;  41160.812;249;   3.735;  36.524;;; 164.558; 194.193;  13.442;   5.531;   4.950;   3.770;   3.727;   3.456;   1.371;   0.360;;;;;;;;;;;;;;;;;;
2016-11-19T07:17:32.496Z;0;2.6170e+01;0;     0.196; 11096.261;  47255.641; 0;  45934.395;  47255.641;  51816.375;  40720.113;249;   3.734;  36.583;;; 164.616; 194.250;  13.443;   5.502;   4.920;   3.769;   3.727;   3.455;   1.372;   0.358;;;;;;;;;;;;;;;;;;
2016-11-19T07:17:40.496Z;0;2.6390e+01;0;     0.172; 11096.261;  47445.641; 0;  46129.836;  47445.641;  52010.410;  40914.152;249;   3.734;  36.641;;; 164.674; 194.306;  13.445;   5.472;   4.890;   3.768;   3.727;   3.454;   1.373;   0.356;;;;;;;;;;;;;;;;;;
2016-11-19T07:17:48.496Z;0;2.6550e+01;0;     0.164; 11096.261;  47581.207; 0;  46269.258;  47581.207;  52148.840;  41052.578;249;   3.734;  36.700;;; 164.732; 194.363;  13.446;   5.442;   4.860;   3.768;   3.726;   3.454;   1.374;   0.354;;;;;;;;;;;;;;;;;;
2016-11-19T07:17:56.496Z;0;2.7000e+01;0;     0.182; 11096.261;  47964.434; 0;  46663.262;  47964.434;  52540.062;  41443.801;249;   3.733;  36.758;;; 164.790; 194.419;  13.447;   5.412;   4.830;   3.767;   3.726;   3.453;   1.374;   0.352;;;;;;;;;;;;;;;;;;
2016-11-19T07:18:04.496Z;0;2.6460e+01;0;     0.147; 11106.761;  47506.223; 0;  46189.621;  47506.223;  52075.645;  40968.883;249;   3.733;  36.817;;; 164.848; 194.475;  13.448;   5.382;   4.800;   3.766;   3.726;   3.453;   1.375;   0.350;;;;;;;;;;;;;;;;;;
2016-11-19T07:18:12.496Z;0;2.7680e+01;0;     0.192; 11106.761;  48532.180; 0;  47244.180;  48532.180;  53122.828;  42016.066;249;   3.733;  36.876;;; 164.907; 194.532;  13.449;   5.352;   4.770;   3.765;   3.725;   3.452;   1.376;   0.348;;;;;;;;;;;;;;;;;;
2016-11-19T07:18:20.496Z;0;2.7260e+01;0;     0.171; 11106.761;  48184.121; 0;  46886.559;  48184.121;  52767.672;  41660.914;249;   3.732;  36.934;;; 164.965; 194.588;  13.450;   5.322;   4.740;   3.765;   3.725;   3.452;   1.377;   0.346;;;;;;;;;;;;;;;;;;
2016-11-19T07:18:28.496Z;0;2.7350e+01;0;     0.185; 11106.761;  48257.496; 0;  46961.961;  48257.496;  52842.551;  41735.793;249;   3.732;  36.993;;; 165.023; 194.645;  13.451;   5.292;   4.710;   3.764;   3.725;   3.451;   1.378;   0.344;;;;;;;;;;;;;;;;;;
2016-11-19T07:18:36.496Z;0;2.8160e+01;0;     0.132; 11106.761;  48927.020; 0;  47649.691;  48927.020;  53525.594;  42418.832;249;   3.732;  37.051;;; 165.081; 194.701;  13.452;   5.262;   4.680;   3.763;   3.725;   3.451;   1.379;   0.342;;;;;;;;;;;;;;;;;;
2016-11-19T07:18:52.496Z;0;2.8770e+01;0;     0.119; 11106.761;  49432.352; 0;  48168.426;  49432.352;  54040.875;  42934.117;249;   3.731;  37.168;;; 165.197; 194.814;  13.454;   5.202;   4.620;   3.762;   3.724;   3.449;   1.381;   0.338;;;;;;;;;;;;;;;;;;
2016-11-19T07:19:00.496Z;0;2.8650e+01;0;     0.122; 11117.540;  49332.047; 0;  48062.992;  49332.047;  53942.145;  42824.605;249;   3.731;  37.227;;; 165.255; 194.870;  13.456;   5.172;   4.590;   3.761;   3.724;   3.449;   1.382;   0.336;;;;;;;;;;;;;;;;;;
2016-11-19T07:19:08.496Z;0;2.8760e+01;0;     0.128; 11117.540;  49428.867; 0;  48162.363;  49428.867;  54040.859;  42923.320;249;   3.730;  37.286;;; 165.314; 194.926;  13.457;   5.142;   4.560;   3.760;   3.723;   3.448;   1.383;   0.334;;;;;;;;;;;;;;;;;;
2016-11-19T07:19:16.496Z;0;2.8710e+01;0;     0.122; 11117.540;  49387.188; 0;  48119.586;  49387.188;  53998.367;  42880.828;249;   3.730;  37.344;;; 165.372; 194.982;  13.458;   5.112;   4.530;   3.760;   3.723;   3.448;   1.384;   0.332;;;;;;;;;;;;;;;;;;
2016-11-19T07:19:24.496Z;0;2.9190e+01;0;     0.126; 11117.540;  49774.648; 0;  48517.172;  49774.648;  54393.348;  43275.805;249;   3.730;  37.403;;; 165.430; 195.039;  13.459;   5.082;   4.500;   3.759;   3.723;   3.447;   1.385;   0.330;;;;;;;;;;;;;;;;;;
2016-11-19T07:19:32.496Z;0;2.9230e+01;0;     0.116; 11117.540;  49806.051; 0;  48549.387;  49806.051;  54425.352;  43307.812;249;   3.729;  37.461;;; 165.488; 195.095;  13.460;   5.052;   4.469;   3.758;   3.722;   3.447;   1.386;   0.328;;;;;;;;;;;;;;;;;;
2016-11-19T07:19:40.496Z;0;2.9330e+01;0;     0.126; 11117.540;  49891.426; 0;  48636.969;  49891.426;  54512.367;  43394.828;249;   3.729;  37.520;;; 165.546; 195.151;  13.461;   5.022;   4.439;   3.758;   3.722;   3.446;   1.387;   0.326;;;;;;;;;;;;;;;;;;
2016-11-19T07:19:48.495Z;0;3.0800e+01;0;     0.145; 11117.540;  51060.004; 0;  49834.973;  51060.004;  55702.805;  44585.266;249;   3.728;  37.578;;; 165.604; 195.207;  13.462;   4.992;   4.409;   3.757;   3.722;   3.446;   1.387;   0.324;;;;;;;;;;;;;;;;;;
2016-11-19T07:19:56.495Z;0;3.0520e+01;0;     0.135; 11117.540;  50837.164; 0;  49606.629;  50837.164;  55475.875;  44358.336;249;   3.728;  37.637;;; 165.662; 195.263;  13.463;   4.962;   4.379;   3.756;   3.721;   3.445;   1.388;   0.322;;;;;;;;;;;;;;;;;;
2016-11-19T07:20:04.495Z;0;3.0650e+01;0;     0.132; 11128.544;  50943.086; 0;  49712.711;  50943.086;  55587.414;  44458.867;249;   3.728;  37.695;;; 165.721; 195.320;  13.464;   4.932;   4.349;   3.756;   3.721;   3.444;   1.389;   0.320;;;;;;;;;;;;;;;;;;
2016-11-19T07:20:12.495Z;0;3.0750e+01;0;     0.122; 11128.544;  51026.680; 0;  49798.367;  51026.680;  55672.543;  44543.996;249;   3.727;  37.754;;; 165.780; 195.378;  13.465;   4.902;   4.319;   3.755;   3.721;   3.444;   1.390;   0.318;;;;;;;;;;;;;;;;;;
2016-11-19T07:20:20.495Z;0;3.0770e+01;0;     0.121; 11128.544;  51042.973; 0;  49815.062;  51042.973;  55689.133;  44560.590;249;   3.727;  37.812;;; 165.839; 195.435;  13.467;   4.872;   4.289;   3.754;   3.720;   3.443;   1.391;   0.316;;;;;;;;;;;;;;;;;;
2016-11-19T07:20:28.495Z;0;3.1210e+01;0;     0.112; 11128.544;  51389.336; 0;  50169.906;  51389.336;  56041.797;  44913.254;249;   3.727;  37.871;;; 165.897; 195.493;  13.468;   4.842;   4.259;   3.754;   3.720;   3.443;   1.392;   0.314;;;;;;;;;;;;;;;;;;
2016-11-19T07:20:36.495Z;0;3.1050e+01;0;     0.111; 11128.544;  51258.410; 0;  50035.789;  51258.410;  55908.500;  44779.957;249;   3.726;  37.930;;; 165.956; 195.550;  13.469;   4.812;   4.229;   3.753;   3.720;   3.442;   1.393;   0.312;;;;;;;;;;;;;;;;;;
2016-11-19T07:20:44.495Z;0;3.1400e+01;0;     0.124; 11128.544;  51538.770; 0;  50322.961;  51538.770;  56193.922;  45065.379;249;   3.726;  37.988;;; 166.015; 195.608;  13.470;   4.782;   4.198;   3.752;   3.719;   3.442;   1.394;   0.310;;;;;;;;;;;;;;;;;;
2016-11-19T07:20:52.495Z;0;3.1520e+01;0;     0.112; 11128.544;  51626.062; 0;  50412.359;  51626.062;  56282.777;  45154.234;249;   3.726;  38.047;;; 166.074; 195.665;  13.471;   4.752;   4.168;   3.752;   3.719;   3.441;   1.395;   0.308;;;;;;;;;;;;;;;;;;
2016-11-19T07:21:00.495Z;0;3.1850e+01;0;     0.118; 11139.884;  51890.020; 0;  50680.145;  51890.020;  56555.246;  45415.363;249;   3.725;  38.105;;; 166.133; 195.723;  13.472;   4.722;   4.138;   3.751;   3.719;   3.440;   1.396;   0.306;;;;;;;;;;;;;;;;;;
2016-11-19T07:21:08.495Z;0;3.1780e+01;0;     0.120; 11139.884;  51831.934; 0;  50620.672;  51831.934;  56496.129;  45356.246;249;   3.725;  38.164;;; 166.192; 195.780;  13.473;   4.692;   4.108;   3.750;   3.718;   3.440;   1.397;   0.305;;;;;;;;;;;;;;;;;;
2016-11-19T07:21:16.495Z;0;3.1870e+01;0;     0.124; 11139.884;  51903.262; 0;  50693.703;  51903.262;  56568.723;  45428.840;249;   3.725;  38.222;;; 166.251; 195.838;  13.474;   4.662;   4.078;   3.750;   3.718;   3.439;   1.398;   0.303;;;;;;;;;;;;;;;;;;
2016-11-19T07:21:24.495Z;0;3.2200e+01;0;     0.110; 11139.884;  52160.699; 0;  50957.254;  52160.699;  56830.703;  45690.820;249;   3.724;  38.281;;; 166.310; 195.896;  13.475;   4.631;   4.048;   3.749;   3.718;   3.439;   1.399;   0.301;;;;;;;;;;;;;;;;;;
2016-11-19T07:21:32.495Z;0;3.2190e+01;0;     0.117; 11139.884;  52152.492; 0;  50948.852;  52152.492;  56822.352;  45682.469;249;   3.724;  38.339;;; 166.369; 195.953;  13.477;   4.601;   4.018;   3.748;   3.717;   3.438;   1.400;   0.299;;;;;;;;;;;;;;;;;;
2016-11-19T07:21:40.495Z;0;3.3730e+01;0;     0.139; 11139.884;  53330.328; 0;  52153.879;  53330.328;  58020.406;  46880.523;249;   3.724;  38.398;;; 166.428; 196.011;  13.478;   4.571;   3.987;   3.748;   3.717;   3.438;   1.400;   0.297;;;;;;;;;;;;;;;;;;
2016-11-19T07:21:48.495Z;0;3.3750e+01;0;     0.136; 11139.884;  53345.453; 0;  52169.344;  53345.453;  58035.785;  46895.898;249;   3.723;  38.456;;; 166.487; 196.069;  13.479;   4.541;   3.957;   3.747;   3.717;   3.437;   1.401;   0.295;;;;;;;;;;;;;;;;;;
2016-11-19T07:21:56.495Z;0;3.4260e+01;0;     0.137; 11139.884;  53730.516; 0;  52563.023;  53730.516;  58427.254;  47287.371;249;   3.723;  38.515;;; 166.546; 196.126;  13.480;   4.511;   3.927;   3.746;   3.716;   3.436;   1.402;   0.293;;;;;;;;;;;;;;;;;;
2016-11-19T07:22:04.495Z;0;3.4450e+01;0;     0.123; 11151.364;  53875.512; 0;  52708.801;  53875.512;  58578.570;  47427.207;249;   3.723;  38.573;;; 166.605; 196.184;  13.481;   4.481;   3.897;   3.746;   3.716;   3.436;   1.403;   0.291;;;;;;;;;;;;;;;;;;
2016-11-19T07:22:12.495Z;0;3.4400e+01;0;     0.127; 11151.364;  53840.285; 0;  52672.797;  53840.285;  58542.762;  47391.398;249;   3.722;  38.632;;; 166.664; 196.242;  13.482;   4.451;   3.867;   3.745;   3.716;   3.435;   1.404;   0.289;;;;;;;;;;;;;;;;;;
2016-11-19T07:22:20.495Z;0;3.5000e+01;0;     0.135; 11151.364;  54287.125; 0;  53129.457;  54287.125;  58996.906;  47845.543;249;   3.722;  38.690;;; 166.723; 196.299;  13.483;   4.421;   3.836;   3.744;   3.715;   3.435;   1.405;   0.287;;;;;;;;;;;;;;;;;;